[[{"header":{"parameterUnit":"m.s-1","parameterCategory":2,"la1":30.2991,"la2":30.254,"lo1":-89.0895,"lo2":-89.0444,"dy":0.0017,"dx":0.0017,"nx":28,"ny":28,"refTime":"2025-06-01T03:00:00:Z","depth":"0","parameterNumber":2,"parameterNumberName":"U-component_of_CURRENTS"},"data":[0,0,0,0,0,0,0,0,0,0,0,0,0,0,0,0,0,0,0,0,0,0,0,0,0,0,0,0,0,0,0,0,0,0,0,0,0,0,0,0,0,0,0,0,0,0,0,0,0,0,0,0,0,0,0,0,0,0,0.2609,0.261,0,0.2617,0.2617,0.2617,0.261,0.261,0.261,0.2609,0.259,0.259,0.259,0,0,0,0,0,0,0,0,0,0,0,0,0,0.2627,0.2626,0.2609,0.261,0.261,0.2617,0.2617,0.2617,0.261,0.261,0.2609,0.2609,0.259,0.259,0.259,0,0,0,0,0,0,0,0,0,0,0,0,0,0.2625,0.2626,0.2609,0.2608,0.2607,0.2617,0.2617,0.2617,0.261,0.261,0.2609,0.2609,0.2591,0.259,0.259,0.2594,0,0,0.2588,0.2588,0,0,0,0,0,0,0,0,0.2625,0.2624,0.2608,0.2608,0.2608,0.2612,0.2616,0.2608,0.261,0.2609,0.2609,0.2609,0.2596,0.2595,0.2597,0.2593,0.2592,0.2588,0.2588,0.2588,0.2588,0,0,0,0,0,0,0,0.2625,0.2624,0.2612,0.2608,0.2608,0.2619,0.2618,0.2615,0.2603,0.2609,0.2608,0.261,0.2596,0.2597,0.2596,0.2592,0.2588,0.2588,0.2588,0.2588,0.2625,0.2627,0,0,0,0,0,0,0.2623,0.2624,0.2612,0.2612,0.2616,0.2619,0.2618,0.2611,0.2604,0.2603,0.261,0.261,0.2598,0.2597,0.2596,0.2636,0.2588,0.2587,0.2587,0.2624,0.2626,0.2627,0,0,0,0,0,0,0.2623,0.2622,0.2611,0.2619,0.2618,0.2619,0.2611,0.2611,0.2612,0.2605,0.2604,0.2611,0.2598,0.2596,0.2599,0.2634,0.2587,0.2587,0.2623,0.2625,0.2626,0.2694,0,0,0,0,0,0,0.2624,0.2621,0.2618,0.2619,0.2618,0.2614,0.2612,0.2612,0.2614,0.2613,0.2605,0.2603,0.2597,0.26,0.2598,0.2632,0.2587,0.2621,0.2624,0.2626,0.269,0.2698,0.2705,0,0,0,0,0,0.2624,0.2619,0.2618,0.2617,0.2612,0.2614,0.2615,0.2614,0.2614,0.2614,0.2615,0.2604,0.2614,0.26,0.2598,0.2633,0.262,0.2623,0.2626,0.2687,0.2697,0.2705,0,0,0,0,0,0,0.2623,0.2618,0.2617,0.2609,0.2611,0.2613,0.2614,0.2616,0.2617,0.2617,0.2611,0.2609,0.263,0.2617,0.2602,0.2652,0.2619,0.2622,0.2666,0.2675,0.2682,0.2708,0.2586,0,0,0,0,0,0.2622,0.2615,0.2616,0.261,0.2611,0.2614,0.2616,0.2616,0.2618,0.2618,0.2616,0.2621,0.2642,0.2645,0.2649,0.2668,0.2696,0.2692,0.2699,0.2705,0.2726,0.284,0.2861,0.2637,0.2637,0.2636,0,0,0.2618,0.2616,0.2612,0.261,0.2611,0.2622,0.2614,0.2616,0.2637,0.2616,0.2637,0.2641,0.2651,0.2681,0.2689,0.2673,0.2772,0.2709,0.2714,0.2732,0.2846,0.2868,0.2888,0.2638,0.2638,0.2638,0,0,0.261,0.2608,0.2601,0.2609,0.2614,0.2624,0.2625,0.2629,0.2643,0.2662,0.2666,0.2696,0.2699,0.2732,0.2748,0.2797,0.2807,0.279,0.285,0.2961,0.2981,0.3,0.3016,0.3036,0.2795,0.2795,0.2795,0,0.2608,0.2603,0.2601,0.2605,0.2624,0.2626,0.2642,0.2658,0.2665,0.2701,0.2674,0.2751,0.2737,0.2826,0.2833,0.2818,0.2853,0.2816,0.2974,0.2993,0.3011,0.3025,0.3045,0.2799,0.2798,0.2798,0.2798,0,0.2598,0.2603,0.2603,0.2616,0.2636,0.2647,0.2677,0.2702,0.2722,0.2752,0.2831,0.2837,0.2892,0.2891,0.2869,0.2991,0.2962,0.2972,0.2958,0.3039,0.3045,0.3066,0.2804,0.2803,0.2801,0.2801,0,0,0.2573,0.2593,0.2594,0.2616,0.265,0.2666,0.2721,0.2785,0.2847,0.2872,0.297,0.2999,0.3019,0.3038,0.3036,0.3114,0.3228,0.3091,0.3095,0.3116,0.3423,0.3237,0.324,0.3284,0.3289,0.3293,0.3359,0,0.2569,0.2578,0.2605,0.2645,0.2658,0.2714,0.2772,0.2838,0.2897,0.2986,0.3049,0.3121,0.3074,0.3108,0.3186,0.3229,0.3294,0.3205,0.3334,0.3336,0.3172,0.3263,0.3063,0.3094,0.3379,0.3383,0.3385,0,0.2552,0.2565,0.2588,0.2674,0.2691,0.2726,0.285,0.2908,0.3041,0.3096,0.3203,0.3245,0.3353,0.3305,0.3452,0.3402,0.3416,0.344,0.3445,0.3271,0.3192,0.3069,0.312,0.3036,0.3417,0.3414,0.3412,0,0.2518,0.2568,0.2591,0.2611,0.2694,0.2746,0.2812,0.2936,0.3022,0.3176,0.3257,0.3392,0.3461,0.3551,0.3553,0.3535,0.3699,0.3686,0.3531,0.3514,0.3367,0.3328,0.3364,0.3812,0.3812,0.3812,0.3812,0,0.2501,0.2524,0.2573,0.2581,0.2658,0.2728,0.2844,0.2932,0.3085,0.32,0.3308,0.3415,0.3537,0.3622,0.3627,0.3619,0.3764,0.3558,0.3547,0.3372,0.3335,0.327,0.324,0.3814,0.3814,0.3813,0.3813,0,0.245,0.2476,0.2512,0.2594,0.2632,0.2685,0.2852,0.2941,0.308,0.3238,0.3294,0.3472,0.3563,0.3625,0.3747,0.3683,0.3582,0.3664,0.3387,0.334,0.3074,0.3053,0.2962,0.2888,0.3521,0.3517,0.3514,0,0.2423,0.2422,0.2502,0.2538,0.2575,0.2675,0.2754,0.2916,0.3015,0.3255,0.3325,0.3468,0.3526,0.3597,0.3526,0.3494,0.3447,0.3281,0.321,0.3043,0.3017,0.2919,0.286,0.3029,0.3022,0.3016,0.3012,0,0.2377,0.2397,0.2425,0.2494,0.2566,0.2665,0.2783,0.2857,0.305,0.3161,0.3299,0.3365,0.3402,0.3273,0.3202,0.3168,0.3083,0.3158,0.3119,0.2737,0.2512,0.2437,0.2944,0.2961,0.2966,0.297,0.2973,0.2975,0.2346,0.2351,0.2388,0.2454,0.2538,0.262,0.2666,0.2782,0.2895,0.3001,0.3138,0.3127,0.3065,0.2923,0.2873,0.2627,0.2701,0.252,0.2537,0.2476,0.2315,0.2642,0.2559,0.2562,0.2564,0.2566,0.2568,0,0.2296,0.2306,0.2359,0.2422,0.2477,0.2551,0.2661,0.2669,0.2714,0.2783,0.2822,0.2674,0.2509,0.2444,0.2188,0.204,0.1988,0.1989,0.1869,0.187,0.2283,0.217,0.1838,0.1839,0.1839,0.1839,0.1839,0.1839,0.2271,0.2268,0.2284,0.2333,0.2383,0.2409,0.2436,0.244,0.2457,0.2345,0.2225,0.219,0.2133,0.1923,0.1706,0.1664,0.158,0.142,0.1524,0.1861,0.1914,0.1964,0.1854,0.1462,0.1461,0.1005,0.1001,0.0998]},{"header":{"parameterUnit":"m.s-1","parameterCategory":2,"la1":30.2991,"la2":30.254,"lo1":-89.0895,"lo2":-89.0444,"dy":0.0017,"dx":0.0017,"nx":28,"ny":28,"refTime":"2025-06-01T03:00:00:Z","depth":"0","parameterNumber":3,"parameterNumberName":"V-component_of_CURRENTS"},"data":[0,0,0,0,0,0,0,0,0,0,0,0,0,0,0,0,0,0,0,0,0,0,0,0,0,0,0,0,0,0,0,0,0,0,0,0,0,0,0,0,0,0,0,0,0,0,0,0,0,0,0,0,0,0,0,0,0,0,0.0136,0.0136,0,0.0122,0.0122,0.0122,0.0109,0.0109,0.0109,0.0109,0.0093,0.0093,0.0093,0,0,0,0,0,0,0,0,0,0,0,0,0,0.0126,0.0126,0.0136,0.0136,0.0136,0.0122,0.0122,0.0122,0.0109,0.0109,0.0109,0.0109,0.0093,0.0093,0.0093,0,0,0,0,0,0,0,0,0,0,0,0,0,0.0123,0.0126,0.0136,0.0129,0.0128,0.0122,0.0122,0.0122,0.0109,0.0109,0.0109,0.0109,0.0093,0.0093,0.0092,0.0092,0,0,0.0091,0.0091,0,0,0,0,0,0,0,0,0.0123,0.0123,0.013,0.0129,0.0128,0.0118,0.0112,0.0112,0.0109,0.0116,0.0109,0.0109,0.0102,0.0101,0.0097,0.0091,0.0091,0.0091,0.0091,0.009,0.009,0,0,0,0,0,0,0,0.0123,0.0123,0.013,0.013,0.0129,0.0117,0.0116,0.0112,0.0109,0.0115,0.0115,0.0114,0.0101,0.0098,0.0097,0.0091,0.0091,0.009,0.009,0.009,0.0075,0.0075,0,0,0,0,0,0,0.0128,0.0124,0.0131,0.013,0.0126,0.0117,0.0117,0.0121,0.0109,0.0108,0.0114,0.0113,0.0099,0.0098,0.0096,0.0098,0.009,0.009,0.009,0.0075,0.0075,0.0075,0,0,0,0,0,0,0.0127,0.0129,0.0131,0.0126,0.0126,0.0118,0.0122,0.0121,0.012,0.0108,0.0107,0.0115,0.0099,0.0097,0.0096,0.0097,0.009,0.0089,0.0075,0.0075,0.0075,0.0099,0,0,0,0,0,0,0.0127,0.0129,0.0133,0.0127,0.0127,0.0134,0.0123,0.0121,0.012,0.0119,0.0109,0.0107,0.0099,0.0097,0.0096,0.0096,0.0089,0.0076,0.0075,0.0075,0.0099,0.01,0.0101,0,0,0,0,0,0.0127,0.0137,0.0134,0.0134,0.0133,0.0135,0.0134,0.0126,0.012,0.0124,0.0115,0.0107,0.0095,0.0097,0.0095,0.0096,0.0076,0.0075,0.0075,0.0098,0.01,0.0101,0,0,0,0,0,0,0.0135,0.0136,0.0133,0.0142,0.0141,0.0133,0.0136,0.0129,0.0125,0.0123,0.0111,0.0109,0.0107,0.0098,0.0101,0.0089,0.0082,0.0081,0.01,0.0101,0.0103,0.0116,0.0088,0,0,0,0,0,0.0139,0.0147,0.0144,0.0152,0.0152,0.0144,0.0143,0.0138,0.0133,0.0131,0.0124,0.0113,0.0104,0.0101,0.0094,0.0092,0.0103,0.0088,0.0089,0.0091,0.01,0.0133,0.0139,0.0074,0.0074,0.0074,0,0,0.0143,0.0146,0.015,0.0154,0.0152,0.0158,0.0143,0.0146,0.0148,0.013,0.0133,0.012,0.0105,0.0101,0.0099,0.0095,0.0111,0.009,0.0092,0.01,0.0134,0.014,0.0146,0.0074,0.0074,0.0074,0,0,0.0162,0.016,0.0174,0.0175,0.0175,0.0169,0.0172,0.0166,0.0161,0.0161,0.0145,0.0137,0.0126,0.0115,0.0108,0.0113,0.0118,0.0104,0.0122,0.0154,0.016,0.0166,0.0177,0.0183,0.0103,0.0103,0.0103,0,0.0168,0.0185,0.0178,0.019,0.0192,0.0177,0.0189,0.0183,0.0176,0.0179,0.0166,0.0155,0.0134,0.0136,0.0127,0.0117,0.0133,0.0118,0.0158,0.0164,0.0169,0.0179,0.0186,0.0105,0.0104,0.0104,0.0104,0,0.0196,0.0207,0.0215,0.0226,0.0226,0.0234,0.0224,0.0224,0.0213,0.0209,0.0211,0.0187,0.0185,0.0166,0.0143,0.0163,0.016,0.0159,0.0159,0.0178,0.0186,0.0193,0.0106,0.0106,0.0105,0.0105,0,0,0.0219,0.0233,0.0237,0.0248,0.0245,0.0251,0.0253,0.0257,0.0276,0.0255,0.0284,0.0239,0.0234,0.0224,0.0198,0.0207,0.0237,0.0196,0.0197,0.0216,0.0303,0.0275,0.0279,0.0253,0.0254,0.0256,0.029,0,0.0245,0.0279,0.0273,0.0298,0.0314,0.0296,0.0306,0.0305,0.0306,0.033,0.0302,0.032,0.0255,0.0265,0.0259,0.026,0.0259,0.0227,0.0274,0.0275,0.0257,0.0288,0.0305,0.0335,0.0296,0.0298,0.0298,0,0.0277,0.0297,0.0328,0.0345,0.035,0.0358,0.0379,0.0387,0.0404,0.041,0.0414,0.0408,0.0409,0.0361,0.0362,0.0352,0.0323,0.031,0.0311,0.0285,0.0261,0.0312,0.0349,0.0306,0.0309,0.0308,0.0307,0,0.031,0.0334,0.0362,0.0367,0.0382,0.0391,0.04,0.0415,0.0448,0.0477,0.0523,0.0508,0.054,0.0504,0.045,0.0425,0.0461,0.0429,0.037,0.0367,0.0389,0.0386,0.0401,0.0429,0.0429,0.0429,0.0428,0,0.0344,0.0366,0.0382,0.0398,0.0439,0.0431,0.0485,0.049,0.0537,0.0612,0.0577,0.0647,0.0585,0.0589,0.0508,0.0467,0.0509,0.0384,0.0383,0.0394,0.0391,0.0359,0.0317,0.043,0.043,0.0429,0.0429,0,0.0378,0.0386,0.0423,0.0446,0.0457,0.0489,0.0546,0.0598,0.0628,0.0734,0.0758,0.0785,0.0796,0.0708,0.0671,0.0568,0.0486,0.0477,0.0478,0.0475,0.0361,0.0319,0.0323,0.03,0.0429,0.0429,0.0428,0,0.0398,0.0422,0.0465,0.0499,0.0511,0.0562,0.0611,0.0643,0.0715,0.0832,0.0901,0.0938,0.0988,0.0897,0.0732,0.0596,0.0511,0.0494,0.0433,0.0369,0.0322,0.0291,0.027,0.047,0.047,0.047,0.047,0,0.0437,0.0452,0.0486,0.056,0.0611,0.0683,0.0757,0.0829,0.0904,0.101,0.1145,0.1196,0.1107,0.1002,0.0787,0.0668,0.0466,0.0489,0.0446,0.0374,0.0323,0.0296,0.0414,0.0471,0.0471,0.0471,0.0471,0.047,0.0467,0.0503,0.0553,0.0623,0.0694,0.0799,0.0877,0.0989,0.1128,0.1298,0.1322,0.1423,0.1234,0.0959,0.0793,0.0496,0.048,0.0404,0.0364,0.0343,0.0305,0.0402,0.0438,0.0438,0.0437,0.0437,0.0437,0,0.0502,0.0547,0.0615,0.0703,0.0796,0.0825,0.0974,0.108,0.1271,0.1423,0.1543,0.1504,0.1288,0.1008,0.061,0.0419,0.0341,0.0314,0.0292,0.0278,0.0401,0.0386,0.0384,0.0384,0.0384,0.0384,0.0385,0.0385,0.0521,0.0588,0.0625,0.0771,0.0846,0.0985,0.108,0.1253,0.139,0.1587,0.165,0.1665,0.146,0.0839,0.0446,0.0342,0.023,0.0186,0.0134,0.0227,0.0233,0.0239,0.0216,0.0179,0.0179,0.0047,0.0045,0.0044]}],[{"header":{"parameterUnit":"m.s-1","parameterCategory":2,"la1":30.2991,"la2":30.254,"lo1":-89.0895,"lo2":-89.0444,"dy":0.0017,"dx":0.0017,"nx":28,"ny":28,"refTime":"2025-06-01T03:00:00:Z","depth":"2","parameterNumber":2,"parameterNumberName":"U-component_of_CURRENTS"},"data":[0,0,0,0,0,0,0,0,0,0,0,0,0,0,0,0,0,0,0,0,0,0,0,0,0,0,0,0,0,0,0,0,0,0,0,0,0,0,0,0,0,0,0,0,0,0,0,0,0,0,0,0,0,0,0,0,0,0,0.2058,0.2059,0,0.2047,0.2047,0.2046,0.2029,0.2029,0.2029,0.2029,0.2017,0.2017,0.2016,0,0,0,0,0,0,0,0,0,0,0,0,0,0.207,0.207,0.2058,0.2059,0.2059,0.2047,0.2047,0.2046,0.2029,0.2029,0.2029,0.2029,0.2017,0.2017,0.2016,0,0,0,0,0,0,0,0,0,0,0,0,0,0.206,0.207,0.2058,0.2051,0.205,0.2047,0.2047,0.2046,0.2029,0.2029,0.2029,0.2029,0.2017,0.2017,0.2016,0.2015,0,0,0.2015,0.2015,0,0,0,0,0,0,0,0,0.2061,0.2059,0.2052,0.2051,0.2051,0.2042,0.2046,0.2037,0.2029,0.2035,0.2029,0.2029,0.2027,0.2026,0.202,0.2014,0.2014,0.2015,0.2015,0.2014,0.2014,0,0,0,0,0,0,0,0.2061,0.206,0.2051,0.2052,0.2051,0.205,0.2048,0.2044,0.2029,0.2034,0.2033,0.2037,0.2026,0.202,0.202,0.2014,0.2015,0.2014,0.2014,0.2014,0.2043,0.2044,0,0,0,0,0,0,0.2068,0.206,0.2052,0.2051,0.2059,0.205,0.2048,0.2043,0.2029,0.2028,0.2037,0.2036,0.2021,0.202,0.2019,0.2055,0.2014,0.2014,0.2014,0.2042,0.2043,0.2044,0,0,0,0,0,0,0.2068,0.2067,0.2052,0.2058,0.2056,0.205,0.2044,0.2043,0.2047,0.2032,0.203,0.2045,0.2021,0.202,0.203,0.2052,0.2014,0.2013,0.2041,0.2042,0.2044,0.2101,0,0,0,0,0,0,0.2068,0.2067,0.2069,0.2058,0.2056,0.2055,0.2045,0.2042,0.205,0.2049,0.2038,0.2036,0.2021,0.2031,0.203,0.2051,0.2013,0.2039,0.2041,0.2043,0.2098,0.2105,0.211,0,0,0,0,0,0.2068,0.2069,0.2069,0.2069,0.2058,0.2056,0.2054,0.2048,0.2051,0.2052,0.2052,0.2037,0.2042,0.2032,0.203,0.2052,0.2038,0.2041,0.2043,0.2095,0.2103,0.211,0,0,0,0,0,0,0.2074,0.2068,0.2067,0.2066,0.2065,0.2054,0.2058,0.2058,0.2058,0.2062,0.2048,0.2047,0.2062,0.2051,0.2039,0.2066,0.2038,0.2041,0.2079,0.2086,0.2092,0.2118,0.2013,0,0,0,0,0,0.2078,0.2077,0.2073,0.2073,0.2075,0.2071,0.2072,0.207,0.2068,0.2069,0.2064,0.2064,0.2068,0.2073,0.2067,0.2085,0.2104,0.2098,0.2104,0.2109,0.213,0.2197,0.2212,0.2052,0.2052,0.2052,0,0,0.2079,0.2078,0.2077,0.2075,0.2074,0.2077,0.207,0.2076,0.2089,0.2068,0.2086,0.2081,0.2076,0.2092,0.2099,0.2089,0.216,0.2112,0.2117,0.2135,0.2201,0.2217,0.2231,0.2053,0.2053,0.2053,0,0,0.2081,0.2083,0.2082,0.2085,0.2091,0.209,0.2097,0.2096,0.2107,0.2122,0.2115,0.2139,0.2128,0.2146,0.215,0.219,0.2186,0.2175,0.2233,0.2298,0.2313,0.2325,0.2352,0.2367,0.2184,0.2184,0.2184,0,0.2086,0.2082,0.2083,0.2087,0.2096,0.21,0.2109,0.212,0.2125,0.2151,0.2134,0.2164,0.2163,0.2207,0.2222,0.2208,0.2227,0.2205,0.2309,0.2322,0.2334,0.2359,0.2374,0.2187,0.2187,0.2186,0.2186,0,0.2083,0.2088,0.209,0.2097,0.2108,0.2116,0.2135,0.2156,0.2172,0.219,0.2235,0.2239,0.2266,0.2264,0.2257,0.2339,0.2316,0.2305,0.2294,0.2354,0.2375,0.2391,0.2191,0.219,0.2189,0.2188,0,0,0.2074,0.2086,0.2088,0.2098,0.2118,0.2125,0.2165,0.2205,0.225,0.2263,0.2328,0.2345,0.2362,0.237,0.2367,0.2424,0.2523,0.2407,0.2409,0.244,0.2645,0.2499,0.2501,0.2531,0.2534,0.2537,0.2617,0,0.2073,0.2079,0.2094,0.2113,0.212,0.2153,0.2195,0.224,0.228,0.2345,0.2383,0.2437,0.2397,0.2429,0.2477,0.2525,0.257,0.2501,0.2576,0.2578,0.2448,0.2517,0.2285,0.2326,0.2632,0.2635,0.2637,0,0.2062,0.2071,0.2084,0.2131,0.2142,0.2166,0.2246,0.2292,0.2389,0.2422,0.2483,0.2519,0.2613,0.2571,0.2676,0.2633,0.2647,0.2667,0.2671,0.2531,0.2463,0.2319,0.2343,0.2662,0.266,0.2659,0.2657,0,0.2041,0.2068,0.2082,0.2091,0.2142,0.218,0.2232,0.2322,0.2382,0.25,0.2545,0.264,0.2695,0.2755,0.2773,0.2755,0.2869,0.2852,0.2723,0.2711,0.2527,0.2493,0.2927,0.2927,0.2927,0.2927,0.2927,0,0.2025,0.2037,0.2076,0.2079,0.2133,0.2185,0.2263,0.233,0.2442,0.2506,0.2594,0.2642,0.2748,0.2807,0.2826,0.2806,0.291,0.2751,0.2736,0.2534,0.2501,0.2802,0.2786,0.293,0.2929,0.2929,0.2928,0,0.199,0.2009,0.2029,0.2088,0.2117,0.2165,0.2277,0.2333,0.2436,0.2526,0.2576,0.2691,0.2754,0.2805,0.2904,0.2847,0.2873,0.2825,0.2555,0.2505,0.2663,0.265,0.274,0.2735,0.2732,0.2729,0.2727,0,0.1969,0.1971,0.2027,0.2046,0.2075,0.2148,0.22,0.2322,0.2382,0.2521,0.2562,0.2666,0.2668,0.2734,0.2695,0.2692,0.2777,0.2463,0.2389,0.2675,0.2652,0.2644,0.2635,0.217,0.2163,0.2158,0.2153,0,0.1932,0.1952,0.1966,0.2008,0.2055,0.21,0.2189,0.2221,0.2347,0.2402,0.2462,0.2491,0.2519,0.2403,0.2381,0.2354,0.2454,0.2345,0.2756,0.2231,0.2139,0.2115,0.2126,0.2103,0.2108,0.2112,0.2115,0.2117,0.1906,0.1907,0.1928,0.196,0.2006,0.2022,0.202,0.2083,0.2129,0.2162,0.2277,0.2221,0.2236,0.2077,0.2002,0.1948,0.2127,0.2044,0.2062,0.2086,0.1984,0.1888,0.1786,0.1789,0.1791,0.1793,0.1796,0,0.186,0.1861,0.1881,0.1894,0.1893,0.1956,0.1984,0.193,0.1893,0.1952,0.1958,0.1767,0.1661,0.1687,0.1506,0.1485,0.149,0.1439,0.1435,0.1484,0.1528,0.1398,0.1044,0.1042,0.104,0.1038,0,0,0.1835,0.1814,0.1811,0.1771,0.1782,0.174,0.1719,0.164,0.1633,0.1539,0.1505,0.1608,0.1636,0.1335,0.1276,0.113,0.1309,0.1082,0.1682,0.1728,0.177,0.1869,0.1723,0,0,0,0,0]},{"header":{"parameterUnit":"m.s-1","parameterCategory":2,"la1":30.2991,"la2":30.254,"lo1":-89.0895,"lo2":-89.0444,"dy":0.0017,"dx":0.0017,"nx":28,"ny":28,"refTime":"2025-06-01T03:00:00:Z","depth":"2","parameterNumber":3,"parameterNumberName":"V-component_of_CURRENTS"},"data":[0,0,0,0,0,0,0,0,0,0,0,0,0,0,0,0,0,0,0,0,0,0,0,0,0,0,0,0,0,0,0,0,0,0,0,0,0,0,0,0,0,0,0,0,0,0,0,0,0,0,0,0,0,0,0,0,0,0,0.0199,0.0199,0,0.0189,0.0189,0.0188,0.0184,0.0184,0.0184,0.0184,0.0175,0.0175,0.0174,0,0,0,0,0,0,0,0,0,0,0,0,0,0.0193,0.0193,0.0199,0.0199,0.0199,0.0189,0.0189,0.0188,0.0184,0.0184,0.0184,0.0184,0.0175,0.0175,0.0174,0,0,0,0,0,0,0,0,0,0,0,0,0,0.0191,0.0193,0.0199,0.0196,0.0195,0.0189,0.0189,0.0188,0.0184,0.0184,0.0184,0.0184,0.0175,0.0175,0.0174,0.0171,0,0,0.0173,0.0173,0,0,0,0,0,0,0,0,0.0191,0.0191,0.0197,0.0196,0.0196,0.0188,0.0183,0.0183,0.0184,0.0189,0.0184,0.0184,0.0179,0.0178,0.0176,0.017,0.017,0.0173,0.0173,0.0173,0.0172,0,0,0,0,0,0,0,0.0191,0.0191,0.0195,0.0196,0.0196,0.0187,0.0187,0.0183,0.0184,0.0188,0.0188,0.0187,0.0179,0.0177,0.0176,0.017,0.0173,0.0173,0.0172,0.0172,0.0161,0.0161,0,0,0,0,0,0,0.0193,0.0191,0.0196,0.0195,0.0193,0.0187,0.0187,0.019,0.0184,0.0183,0.0187,0.0186,0.0178,0.0177,0.0176,0.0182,0.0173,0.0172,0.0172,0.0161,0.0161,0.0161,0,0,0,0,0,0,0.0193,0.0194,0.0196,0.0192,0.0192,0.0187,0.0191,0.019,0.0189,0.0183,0.0182,0.0187,0.0178,0.0176,0.0175,0.0181,0.0172,0.0172,0.0161,0.0161,0.0161,0.0187,0,0,0,0,0,0,0.0193,0.0194,0.0198,0.0193,0.0192,0.0197,0.0191,0.019,0.0188,0.0188,0.0183,0.0182,0.0177,0.0176,0.0175,0.018,0.0171,0.0161,0.0161,0.0161,0.0186,0.0187,0.0189,0,0,0,0,0,0.0193,0.02,0.0198,0.0198,0.0197,0.0197,0.0196,0.0192,0.0189,0.0191,0.0186,0.0182,0.0175,0.0176,0.0174,0.018,0.0161,0.0161,0.0161,0.0185,0.0187,0.0189,0,0,0,0,0,0,0.0199,0.02,0.0198,0.0205,0.0202,0.0196,0.0198,0.0193,0.0191,0.0191,0.0183,0.0182,0.0183,0.0175,0.0177,0.0175,0.0166,0.0166,0.0185,0.0187,0.0188,0.0208,0.0171,0,0,0,0,0,0.0202,0.0208,0.0204,0.021,0.021,0.0203,0.0202,0.0199,0.0196,0.0195,0.0191,0.0184,0.0181,0.018,0.0175,0.0175,0.0177,0.0176,0.0177,0.0179,0.0193,0.0204,0.0209,0.0161,0.0161,0.0161,0,0,0.0205,0.0207,0.021,0.0212,0.021,0.0215,0.0203,0.0204,0.0209,0.0194,0.0201,0.0191,0.0182,0.0183,0.0182,0.0178,0.0189,0.0179,0.018,0.0194,0.0205,0.021,0.0214,0.0161,0.0161,0.0161,0,0,0.0218,0.0217,0.0228,0.0227,0.0226,0.0223,0.0224,0.022,0.0219,0.0221,0.0211,0.0207,0.02,0.0197,0.0194,0.02,0.0197,0.0194,0.0219,0.0229,0.0234,0.0238,0.0231,0.0235,0.0194,0.0194,0.0194,0,0.0222,0.0237,0.023,0.0239,0.0243,0.0229,0.0241,0.0238,0.0233,0.0242,0.0227,0.023,0.021,0.0224,0.0218,0.0206,0.0208,0.0214,0.0233,0.0237,0.0241,0.0233,0.0237,0.0195,0.0195,0.0195,0.0195,0,0.0244,0.0255,0.0261,0.0271,0.0272,0.028,0.0274,0.0278,0.0273,0.0274,0.0286,0.0264,0.0272,0.0254,0.0235,0.0252,0.0242,0.0235,0.0233,0.0248,0.0238,0.0241,0.0197,0.0196,0.0196,0.0196,0,0,0.026,0.0275,0.0278,0.0292,0.0291,0.0299,0.0308,0.0322,0.0348,0.0331,0.0367,0.0334,0.0331,0.0326,0.0304,0.0299,0.0304,0.0277,0.0277,0.0278,0.0321,0.0291,0.0291,0.0306,0.0307,0.0307,0.0298,0,0.0283,0.0313,0.0311,0.034,0.0355,0.0349,0.0367,0.0375,0.0382,0.0412,0.0392,0.0414,0.0357,0.0367,0.0352,0.0329,0.0317,0.0307,0.03,0.03,0.0278,0.0296,0.0302,0.0293,0.0301,0.0302,0.0302,0,0.0309,0.0328,0.0359,0.039,0.0397,0.0409,0.0448,0.0464,0.0492,0.0504,0.0516,0.0509,0.0502,0.0454,0.042,0.042,0.0372,0.0341,0.034,0.0312,0.0277,0.0282,0.0299,0.0307,0.0307,0.0306,0.0306,0,0.0336,0.0365,0.0395,0.0402,0.0429,0.0446,0.0465,0.0494,0.0539,0.0572,0.0617,0.0599,0.0611,0.0558,0.0474,0.0458,0.0436,0.0409,0.0335,0.0331,0.0336,0.0331,0.0386,0.0386,0.0386,0.0386,0.0386,0,0.0366,0.0391,0.0411,0.0427,0.048,0.0481,0.0551,0.0567,0.0628,0.0704,0.0673,0.0728,0.0641,0.0612,0.052,0.0439,0.0471,0.035,0.0335,0.0341,0.0337,0.0351,0.0347,0.0386,0.0386,0.0386,0.0386,0,0.0393,0.0403,0.0443,0.0476,0.0493,0.0532,0.0615,0.0679,0.0716,0.0818,0.0839,0.084,0.0799,0.0695,0.0608,0.051,0.0428,0.0385,0.0384,0.037,0.0303,0.03,0.0317,0.0316,0.0315,0.0314,0.0314,0,0.041,0.0431,0.0482,0.052,0.0537,0.0603,0.0666,0.0721,0.0802,0.0894,0.0955,0.0939,0.0939,0.0788,0.062,0.0464,0.043,0.0352,0.0317,0.0315,0.03,0.0298,0.0296,0.0325,0.0325,0.0324,0.0324,0,0.0443,0.0458,0.0494,0.0573,0.0635,0.0727,0.0816,0.0896,0.098,0.1053,0.1135,0.1135,0.0994,0.0838,0.0608,0.0494,0.0376,0.0339,0.0365,0.0336,0.0321,0.0306,0.0305,0.0321,0.0321,0.0321,0.0322,0.0322,0.047,0.0504,0.0554,0.0632,0.0715,0.0836,0.0926,0.1028,0.1149,0.1254,0.1247,0.1228,0.1054,0.0755,0.0567,0.0356,0.0371,0.0281,0.0283,0.0286,0.0283,0.0267,0.0255,0.0255,0.0255,0.0255,0.0255,0,0.0503,0.0546,0.0617,0.0713,0.0817,0.0856,0.1021,0.1108,0.1242,0.1305,0.1345,0.1155,0.0979,0.0767,0.0466,0.029,0.0273,0.0214,0.0239,0.0244,0.0248,0.0243,0.0205,0.0204,0.0203,0.0203,0,0,0.0521,0.0586,0.0622,0.0779,0.086,0.101,0.111,0.1222,0.1294,0.134,0.1315,0.1275,0.103,0.0796,0.0563,0.0387,0.035,0.034,0.04,0.0463,0.0468,0.0306,0.0307,0,0,0,0,0]}],[{"header":{"parameterUnit":"m.s-1","parameterCategory":2,"la1":30.2991,"la2":30.254,"lo1":-89.0895,"lo2":-89.0444,"dy":0.0017,"dx":0.0017,"nx":28,"ny":28,"refTime":"2025-06-01T03:00:00:Z","depth":"4","parameterNumber":2,"parameterNumberName":"U-component_of_CURRENTS"},"data":[0,0,0,0,0,0,0,0,0,0,0,0,0,0,0,0,0,0,0,0,0,0,0,0,0,0,0,0,0,0,0,0,0,0,0,0,0,0,0,0,0,0,0,0,0,0,0,0,0,0,0,0,0,0,0,0,0,0,0.1199,0.1199,0,0.1195,0.1195,0.1194,0.1213,0.1213,0.1214,0.1215,0.1216,0.1215,0.1214,0,0,0,0,0,0,0,0,0,0,0,0,0,0.1188,0.1188,0.1199,0.1199,0.1199,0.1195,0.1195,0.1194,0.1212,0.1213,0.1214,0.1215,0.1216,0.1215,0.1214,0,0,0,0,0,0,0,0,0,0,0,0,0,0.1187,0.1188,0.1199,0.121,0.1211,0.1195,0.1195,0.1194,0.1212,0.1213,0.1215,0.1216,0.1216,0.1215,0.1214,0.1184,0,0,0.1211,0.121,0,0,0,0,0,0,0,0,0.1187,0.1187,0.1208,0.1209,0.1211,0.1208,0.1191,0.1192,0.1212,0.1209,0.1215,0.1216,0.1215,0.1214,0.1206,0.1184,0.1184,0.1211,0.121,0.121,0.1209,0,0,0,0,0,0,0,0.1187,0.1187,0.1194,0.1208,0.121,0.1204,0.1205,0.1191,0.1203,0.1209,0.1211,0.1215,0.1215,0.1207,0.1206,0.1184,0.1211,0.121,0.1209,0.1209,0.123,0.1232,0,0,0,0,0,0,0.1194,0.1187,0.1195,0.1195,0.1205,0.1203,0.1204,0.1205,0.1203,0.1205,0.1214,0.1216,0.1208,0.1208,0.1207,0.1242,0.121,0.1209,0.1208,0.1229,0.1231,0.1232,0,0,0,0,0,0,0.1193,0.1194,0.1195,0.1193,0.1193,0.1203,0.1203,0.1205,0.1228,0.1207,0.1209,0.124,0.1209,0.1208,0.1221,0.1239,0.1208,0.1207,0.1228,0.123,0.1231,0.1266,0,0,0,0,0,0,0.1193,0.1194,0.1209,0.1194,0.1194,0.1207,0.1202,0.1204,0.1228,0.1231,0.1229,0.1229,0.121,0.1223,0.122,0.1237,0.1206,0.1226,0.1229,0.1231,0.1264,0.1269,0.1274,0,0,0,0,0,0.1192,0.1204,0.121,0.1212,0.121,0.1208,0.1208,0.1216,0.1228,0.1241,0.1242,0.123,0.1236,0.1222,0.1219,0.1237,0.1225,0.1228,0.1231,0.1261,0.1268,0.1274,0,0,0,0,0,0,0.1207,0.1206,0.1213,0.1225,0.1229,0.1213,0.123,0.1233,0.1242,0.1256,0.1237,0.1236,0.1257,0.1244,0.123,0.1253,0.1232,0.1234,0.1257,0.1263,0.1268,0.1277,0.1206,0,0,0,0,0,0.1217,0.1229,0.1224,0.1239,0.1245,0.1243,0.125,0.1256,0.1256,0.1263,0.1261,0.1262,0.1258,0.1261,0.1257,0.1262,0.1275,0.1276,0.1281,0.1285,0.1292,0.1344,0.1354,0.1241,0.1241,0.1241,0,0,0.1228,0.123,0.1238,0.1244,0.1249,0.1252,0.1251,0.127,0.1271,0.126,0.1275,0.1281,0.1266,0.1275,0.1283,0.127,0.1323,0.1289,0.1292,0.1297,0.1348,0.1359,0.1369,0.1243,0.1243,0.1242,0,0,0.1243,0.1258,0.127,0.1275,0.1291,0.1284,0.1298,0.1301,0.1307,0.1318,0.1313,0.1333,0.1328,0.1318,0.1311,0.1343,0.1351,0.1352,0.1379,0.1429,0.1439,0.1448,0.1472,0.1483,0.1351,0.1351,0.1351,0,0.126,0.1265,0.1275,0.1284,0.1286,0.1302,0.1305,0.1308,0.1316,0.132,0.1336,0.1356,0.1344,0.1348,0.1361,0.1352,0.1384,0.1353,0.1436,0.1445,0.1454,0.1476,0.1488,0.1353,0.1353,0.1353,0.1353,0,0.1269,0.1284,0.1294,0.1305,0.1309,0.1321,0.1319,0.1335,0.1352,0.1355,0.1388,0.1391,0.1408,0.1407,0.139,0.144,0.1443,0.1439,0.1419,0.1467,0.1488,0.1499,0.1356,0.1356,0.1355,0.1354,0,0,0.1272,0.1295,0.1301,0.1298,0.132,0.1311,0.1327,0.1329,0.1349,0.138,0.141,0.1414,0.1452,0.1448,0.1449,0.1484,0.1559,0.1496,0.1497,0.1517,0.1672,0.1535,0.1534,0.1586,0.1589,0.159,0.1659,0,0.1276,0.1291,0.1298,0.1299,0.1299,0.131,0.1317,0.1328,0.1358,0.1398,0.1423,0.1465,0.1456,0.1493,0.1528,0.1558,0.1593,0.154,0.1625,0.1626,0.1498,0.1543,0.1598,0.1667,0.167,0.1672,0.1673,0,0.1272,0.128,0.1292,0.1283,0.1284,0.1291,0.1306,0.1318,0.1375,0.1413,0.1478,0.1516,0.1573,0.1574,0.1657,0.1635,0.1662,0.1679,0.1683,0.1551,0.151,0.1613,0.1693,0.1692,0.169,0.1689,0.1688,0,0.1247,0.126,0.1266,0.1268,0.1277,0.128,0.1289,0.1333,0.1354,0.1453,0.1511,0.158,0.1639,0.1698,0.1731,0.1721,0.1822,0.1805,0.1701,0.1691,0.1779,0.1768,0.1872,0.1872,0.1872,0.1872,0.1872,0,0.1225,0.1226,0.126,0.126,0.1261,0.1273,0.1296,0.133,0.1403,0.1443,0.1538,0.1589,0.1683,0.1741,0.1768,0.1762,0.1855,0.1713,0.1705,0.1789,0.178,0.1786,0.1775,0.1875,0.1874,0.1874,0.1873,0,0.1193,0.1223,0.1228,0.1249,0.1255,0.1262,0.1294,0.1306,0.1405,0.1476,0.152,0.1622,0.1699,0.176,0.1844,0.1787,0.1807,0.178,0.1862,0.1857,0.1635,0.1626,0.1675,0.1671,0.1668,0.1665,0.1662,0,0.1172,0.1183,0.1224,0.1222,0.1234,0.1249,0.125,0.1314,0.1341,0.1472,0.1498,0.1608,0.1666,0.1676,0.1743,0.178,0.1755,0.1741,0.1686,0.163,0.1619,0.1614,0.161,0.1657,0.1656,0.1655,0.1654,0,0.113,0.1173,0.118,0.1191,0.1193,0.118,0.1199,0.121,0.1291,0.1402,0.1449,0.1485,0.1555,0.1599,0.1633,0.1653,0.1737,0.1704,0.1711,0.1659,0.1608,0.1599,0.1599,0.1642,0.1643,0.1645,0.1645,0,0.1107,0.1112,0.1139,0.1126,0.1133,0.1094,0.1107,0.1116,0.1154,0.1306,0.1313,0.1436,0.1537,0.1533,0.1568,0.1574,0.1548,0.1482,0.15,0.1514,0.1425,0.1335,0.1285,0,0,0,0,0,0.1071,0.1059,0.105,0.1024,0.1025,0.1024,0.1056,0.1076,0.1173,0.1174,0.1241,0.1304,0.1347,0.1401,0.1377,0.1487,0.1548,0.1448,0.1478,0.1574,0.1588,0.1497,0,0,0,0,0,0,0.1041,0.1049,0.1031,0.0942,0.0901,0.0882,0.0898,0.0953,0.096,0.1081,0.112,0.1216,0.1289,0.1365,0.1356,0.1371,0.1356,0.1525,0.152,0.1566,0.1579,0.159,0.1501,0,0,0,0,0]},{"header":{"parameterUnit":"m.s-1","parameterCategory":2,"la1":30.2991,"la2":30.254,"lo1":-89.0895,"lo2":-89.0444,"dy":0.0017,"dx":0.0017,"nx":28,"ny":28,"refTime":"2025-06-01T03:00:00:Z","depth":"4","parameterNumber":3,"parameterNumberName":"V-component_of_CURRENTS"},"data":[0,0,0,0,0,0,0,0,0,0,0,0,0,0,0,0,0,0,0,0,0,0,0,0,0,0,0,0,0,0,0,0,0,0,0,0,0,0,0,0,0,0,0,0,0,0,0,0,0,0,0,0,0,0,0,0,0,0,0.0186,0.0186,0,0.0183,0.0183,0.0183,0.0191,0.0191,0.0191,0.0191,0.02,0.02,0.02,0,0,0,0,0,0,0,0,0,0,0,0,0,0.0179,0.0179,0.0186,0.0186,0.0186,0.0183,0.0183,0.0183,0.0191,0.0191,0.0191,0.0192,0.0199,0.02,0.02,0,0,0,0,0,0,0,0,0,0,0,0,0,0.018,0.0179,0.0186,0.0189,0.0189,0.0183,0.0183,0.0183,0.0191,0.0191,0.0191,0.0192,0.0199,0.02,0.02,0.0193,0,0,0.02,0.02,0,0,0,0,0,0,0,0,0.018,0.018,0.0189,0.0189,0.0189,0.0187,0.0184,0.0187,0.0191,0.019,0.0191,0.0192,0.0196,0.0196,0.0195,0.0194,0.0194,0.02,0.02,0.02,0.02,0,0,0,0,0,0,0,0.018,0.0181,0.0185,0.0189,0.0189,0.0184,0.0185,0.0184,0.0192,0.019,0.0191,0.019,0.0196,0.0195,0.0196,0.0194,0.02,0.02,0.02,0.02,0.0206,0.0206,0,0,0,0,0,0,0.0181,0.0181,0.0185,0.0185,0.0185,0.0184,0.0185,0.0188,0.0192,0.0192,0.019,0.0191,0.0195,0.0196,0.0196,0.0216,0.02,0.02,0.02,0.0206,0.0206,0.0206,0,0,0,0,0,0,0.018,0.0181,0.0185,0.0182,0.0182,0.0184,0.0187,0.0188,0.0191,0.0191,0.0192,0.0194,0.0195,0.0196,0.0202,0.0215,0.02,0.02,0.0205,0.0206,0.0206,0.0238,0,0,0,0,0,0,0.018,0.0181,0.0185,0.0182,0.0183,0.0186,0.0187,0.0187,0.019,0.0191,0.0195,0.0195,0.0196,0.0202,0.0202,0.0215,0.02,0.0205,0.0206,0.0206,0.0237,0.0239,0.0241,0,0,0,0,0,0.018,0.0185,0.0185,0.0186,0.0188,0.0186,0.0186,0.0188,0.019,0.0193,0.0196,0.0196,0.0203,0.0202,0.0202,0.0215,0.0205,0.0206,0.0206,0.0236,0.0239,0.0241,0,0,0,0,0,0,0.0184,0.0186,0.0186,0.0192,0.0191,0.0188,0.0191,0.019,0.0194,0.0197,0.0197,0.0198,0.0208,0.0203,0.0201,0.0216,0.0204,0.0204,0.0227,0.023,0.0232,0.0247,0.02,0,0,0,0,0,0.0186,0.0192,0.0189,0.0194,0.0194,0.0192,0.0193,0.0194,0.0195,0.0197,0.02,0.0203,0.0207,0.0212,0.0212,0.0221,0.0207,0.0228,0.023,0.0233,0.0244,0.023,0.0232,0.0207,0.0207,0.0207,0,0,0.0188,0.0191,0.0194,0.0196,0.0196,0.0202,0.0194,0.0196,0.0207,0.0197,0.0214,0.0209,0.021,0.0221,0.0225,0.0221,0.023,0.0233,0.0235,0.0245,0.0231,0.0233,0.0236,0.0207,0.0207,0.0207,0,0,0.0197,0.0198,0.0206,0.0207,0.0208,0.0209,0.021,0.021,0.0217,0.0224,0.0223,0.0228,0.0232,0.024,0.0243,0.0257,0.024,0.0254,0.0284,0.027,0.0272,0.0274,0.025,0.0249,0.0259,0.0259,0.0259,0,0.02,0.0212,0.0207,0.0215,0.0222,0.0214,0.0227,0.023,0.0233,0.0247,0.0234,0.0249,0.0244,0.0269,0.0274,0.0264,0.0248,0.0275,0.0274,0.0276,0.0277,0.0252,0.0251,0.026,0.026,0.026,0.026,0,0.0214,0.0225,0.0229,0.0241,0.0246,0.0254,0.0259,0.0269,0.0273,0.0279,0.0298,0.0287,0.03,0.0295,0.029,0.0304,0.0286,0.0276,0.0269,0.0282,0.0254,0.0252,0.0263,0.0262,0.0262,0.0261,0,0,0.0223,0.0237,0.0241,0.0257,0.0263,0.0273,0.0294,0.0317,0.0346,0.0337,0.0366,0.0366,0.0359,0.0362,0.0351,0.0341,0.0328,0.0316,0.0315,0.0296,0.0289,0.0271,0.0266,0.0316,0.0316,0.0316,0.0262,0,0.0238,0.0262,0.0267,0.0298,0.0312,0.0321,0.0348,0.0368,0.0381,0.0404,0.0395,0.0413,0.0385,0.0393,0.0377,0.0343,0.0327,0.0343,0.0277,0.0275,0.026,0.0266,0.0317,0.0261,0.0261,0.026,0.026,0,0.0254,0.0271,0.0301,0.0342,0.0352,0.0371,0.0423,0.0449,0.0477,0.0486,0.0494,0.0481,0.0474,0.044,0.0388,0.0398,0.035,0.0315,0.0312,0.0286,0.0254,0.0248,0.0257,0.0257,0.0257,0.0258,0.0258,0,0.0269,0.0301,0.0331,0.0341,0.0379,0.0407,0.0438,0.0477,0.0518,0.054,0.0558,0.054,0.0531,0.0474,0.0396,0.0393,0.0324,0.031,0.0246,0.0243,0.0262,0.0261,0.0271,0.0272,0.0272,0.0272,0.0272,0,0.0286,0.0313,0.0343,0.0358,0.0416,0.0436,0.0506,0.0533,0.0579,0.0628,0.0604,0.0617,0.0539,0.0487,0.0411,0.0321,0.0332,0.0255,0.0233,0.0274,0.0275,0.026,0.026,0.027,0.027,0.0271,0.0271,0,0.0298,0.0313,0.0354,0.0399,0.0423,0.0468,0.0553,0.0605,0.0638,0.0693,0.07,0.0675,0.061,0.0521,0.0421,0.0345,0.026,0.0224,0.027,0.025,0.0183,0.0185,0.0155,0.0154,0.0153,0.0152,0.0151,0,0.0305,0.0324,0.0384,0.0419,0.0442,0.0514,0.0572,0.0631,0.0687,0.0725,0.0749,0.0704,0.067,0.0513,0.0414,0.0268,0.0244,0.0186,0.0193,0.0192,0.0174,0.0177,0.0179,0.015,0.015,0.015,0.0149,0,0.0321,0.0341,0.0376,0.0445,0.0504,0.0586,0.0666,0.0705,0.0771,0.0792,0.0788,0.0712,0.0635,0.0514,0.0398,0.0293,0.0218,0.0177,0.0178,0.0184,0.0186,0.0169,0.0173,0.0146,0.0147,0.0147,0.0147,0,0.0336,0.0363,0.0409,0.0475,0.0553,0.0635,0.0677,0.0736,0.079,0.0822,0.0812,0.073,0.0685,0.0527,0.0421,0.0316,0.0289,0.0238,0.0235,0.0237,0.0275,0.0292,0.027,0,0,0,0,0,0.0349,0.0382,0.0438,0.0514,0.0593,0.0643,0.0735,0.0772,0.0818,0.0819,0.0821,0.075,0.0596,0.0534,0.0428,0.0402,0.0267,0.0271,0.0207,0.013,0.0133,0.0162,0,0,0,0,0,0,0.0357,0.0407,0.0435,0.0536,0.0593,0.0691,0.0749,0.0781,0.0789,0.0805,0.0733,0.07,0.0562,0.0655,0.0418,0.0388,0.0326,0.0208,0.0204,0.0128,0.0131,0.0134,0.0165,0,0,0,0,0]}]]